Date,TemperatureHighF,TemperatureAvgF,TemperatureLowF,DewpointHighF,DewpointAvgF,DewpointLowF,HumidityHigh,HumidityAvg,HumidityLow,PressureMaxIn,PressureMinIn,WindSpeedMaxMPH,WindSpeedAvgMPH,GustSpeedMaxMPH,PrecipitationSumIn
2013-3-1,61.0,45.9,39.2,34.9,31.9,24.9,77,60,25,30.18,30.02,11,2,11,0.00
2013-3-2,48.4,40.3,34.5,29.2,25.6,20.8,70,56,43,30.25,30.13,14,5,15,0.00
2013-3-3,55.8,41.5,34.3,41.7,21.2,11.2,82,47,18,30.27,30.15,11,2,13,0.00
2013-3-4,65.5,49.5,35.6,53.5,41.6,31.8,92,75,50,30.20,30.00,14,3,15,0.00
2013-3-5,74.3,63.9,47.7,61.8,52.6,37.9,81,67,44,30.17,29.95,28,8,30,0.00
2013-3-6,62.2,49.0,39.7,39.6,28.4,19.8,81,49,21,30.30,30.17,11,4,14,0.00
2013-3-7,68.2,44.5,36.5,41.8,33.2,26.7,90,67,21,30.37,30.07,8,1,12,0.00
2013-3-8,77.5,55.2,41.0,45.8,37.9,17.6,96,61,12,30.34,30.20,8,1,11,0.00
2013-3-9,72.9,61.1,46.9,57.7,51.3,44.2,96,73,39,30.23,30.06,15,4,17,0.00
2013-3-10,74.8,65.3,59.4,62.8,59.5,57.2,93,82,65,30.07,29.95,15,6,23,0.00
2013-3-11,67.5,57.2,45.5,65.9,53.4,42.7,100,87,68,30.01,29.86,17,4,17,0.41
2013-3-12,67.8,49.6,40.5,43.3,37.2,31.8,91,65,30,30.21,30.01,12,3,12,0.00
2013-3-13,69.3,54.9,42.6,40.3,28.1,14.1,82,43,13,30.38,30.20,11,3,13,0.00
2013-3-14,68.2,51.1,39.4,40.5,27.7,11.6,72,45,13,30.47,30.31,9,2,9,0.00
2013-3-15,73.8,58.1,43.5,50.6,43.6,30.8,100,64,22,30.33,30.16,17,5,23,0.00
2013-3-16,75.9,62.7,49.8,58.2,52.9,47.8,100,73,40,30.16,30.01,20,5,28,0.00
2013-3-17,74.3,63.1,55.0,62.9,58.8,54.2,100,87,59,30.03,29.91,16,2,17,0.00
2013-3-18,81.0,69.6,61.5,68.1,64.6,59.2,97,85,61,29.94,29.80,24,4,24,0.00
2013-3-19,82.6,67.3,56.7,61.3,49.1,38.7,87,56,25,30.06,29.90,10,3,20,0.00
2013-3-20,68.0,57.8,48.6,43.4,34.1,22.1,61,42,20,30.13,30.00,13,3,14,0.00
2013-3-21,70.9,54.7,43.2,42.4,28.5,15.4,67,41,12,30.10,29.91,12,2,12,0.00
2013-3-22,68.4,58.4,48.9,59.0,48.8,41.3,87,71,55,29.95,29.87,11,3,15,0.01
2013-3-23,75.2,66.1,60.6,70.7,61.9,50.9,100,87,68,29.90,29.60,16,2,27,0.51
2013-3-24,81.9,67.1,48.2,69.7,54.8,29.3,97,68,31,29.96,29.57,20,6,21,0.00
2013-3-25,60.8,48.0,37.6,32.8,24.0,10.9,69,44,16,30.25,29.96,14,5,30,0.00
2013-3-26,58.5,47.2,38.7,35.7,24.4,15.7,60,43,22,30.34,29.86,16,3,16,0.00
2013-3-27,65.8,48.3,41.0,38.9,29.3,16.0,79,53,16,30.06,29.89,11,2,14,0.00
2013-3-28,73.9,54.5,41.0,43.4,34.6,14.4,95,57,11,29.99,29.85,13,2,15,0.00
2013-3-29,73.0,58.1,42.6,55.6,45.7,31.4,100,69,26,29.95,29.82,16,3,20,0.00
2013-3-30,75.9,63.2,51.6,60.5,54.6,45.9,100,77,35,29.83,29.65,18,4,22,0.00
2013-3-31,81.0,66.9,59.4,65.0,61.2,56.7,100,84,48,29.69,29.50,21,4,27,0.25